Location: Bosdarros
(43.2167°N, 0.3667°W)
Time: 03:36:15
(UTC+00:00)

IRIDIUM 104 - Pass Details

Date: 22 April 2021
Orbit: 776 x 779 km, 86.4° (Epoch: 15 May)

Event Time Altitude Azimuth Distance (km) Brightness Sun altitude
Exits shadow 20:03:25 - 169° (S) 2,802 6.8 -12.5°
Reaches altitude 10° 20:04:39 10° 167° (SSE) 2,323 6.4 -12.7°
Maximum altitude 20:09:45 60° 89° (E) 889 4.4 -13.5°
Drops below altitude 10° 20:14:54 10° 10° (N) 2,339 7.1 -14.3°
Sets 20:17:16 0° 7° (N) 3,270 7.9 -14.7°
